Location: Wildlife_Club
(35.6000°N, 81.4330°W)
Time: 07:08:24
(UTC-05:00)

Amateur Radio Satellites - All Passes

Search period start: 23 November 2014 06:38
Search period end: 24 November 2014 06:38
Location: Wildlife_Club, 35.6000°N, 81.4330°W

Satellite Date Start Highest point End Downlink Frequencies (MHz)
Time Altitude Azimuth
BEESAT 3 23 Nov 06:50:45 06:54:48 49° 245° (WSW) 06:58:47 437.485
ISS 23 Nov 06:54:27 06:57:09 23° 33° (NNE) 06:59:51 145.825
CUTE-I 23 Nov 06:54:36 06:59:56 85° 284° (WNW) 07:05:14 437.470
BEESAT 2 23 Nov 07:03:35 07:07:31 39° 246° (WSW) 07:11:22 435.950
STRAND 1 23 Nov 07:10:47 07:15:33 39° 261° (W) 07:20:22 437.568
AIST 1 23 Nov 07:21:50 07:26:10 58° 81° (E) 07:30:26
AIST 2 23 Nov 07:23:24 07:27:35 51° 245° (WSW) 07:31:40 435.215
AO-7 23 Nov 07:26:19 07:28:23 11° 311° (NW) 07:30:27 29.400- 29.500
GONETS M04 23 Nov 07:26:51 07:32:55 21° 81° (E) 07:39:00
JAS-2 23 Nov 07:27:05 07:31:33 18° 301° (WNW) 07:35:45 435.910
PCSat 23 Nov 07:28:02 07:31:39 18° 255° (WSW) 07:35:15 145.827
O/OREOS (USA 219) 23 Nov 07:41:58 07:45:32 23° 298° (WNW) 07:49:07 437.305
Cubesat XI-IV 23 Nov 07:53:06 07:57:17 24° 293° (WNW) 08:01:27 437.490
CUBESAT XI-V 23 Nov 08:02:24 08:03:04 10° 270° (W) 08:03:43 437.345
ISS 23 Nov 08:30:50 08:33:50 32° 228° (SW) 08:36:49 145.825
SEEDS 23 Nov 08:41:28 08:44:43 21° 95° (E) 08:47:57 437.485
CANX-2 23 Nov 09:04:15 09:08:26 51° 100° (E) 09:12:37 2200.000
AAUSAT CUBESAT 2 23 Nov 09:04:25 09:08:05 28° 97° (E) 09:11:45 437.432
DOVE 4 23 Nov 09:07:28 09:10:48 23° 96° (E) 09:14:12 437.250
COMPASS 1 23 Nov 09:17:09 09:21:15 47° 99° (E) 09:25:20 437.405
HO-68 23 Nov 09:19:26 09:26:37 70° 104° (ESE) 09:33:43 435.675
GONETS M04 23 Nov 09:20:02 09:28:46 71° 278° (W) 09:37:37
QB50P1 23 Nov 09:22:41 09:23:50 11° 65° (ENE) 09:25:00 145.935-145.965
ANTELSAT 23 Nov 09:23:58 09:26:45 17° 68° (ENE) 09:29:32 437.575/2403.000
DELFI C3 23 Nov 09:25:59 09:29:05 20° 95° (E) 09:32:11 145.870
GOMX 1 23 Nov 09:34:22 09:38:31 69° 101° (ESE) 09:42:44 467.674
CUTE 1.7 & AOD 2 23 Nov 09:39:18 09:43:34 65° 284° (WNW) 09:47:48 437.475
POPSAT HIP 1 23 Nov 09:44:51 09:48:00 20° 69° (ENE) 09:51:08 437.405
BRITE-PL 23 Nov 09:47:12 09:51:15 56° 285° (WNW) 09:55:20 437.365/2234.400
BUGSAT 1 23 Nov 09:47:51 09:50:48 18° 68° (ENE) 09:53:44 437.445
FUNcube-1 23 Nov 09:50:31 09:53:35 19° 95° (E) 09:56:42 145.935
UKube-1 23 Nov 09:51:59 09:56:08 43° 100° (E) 10:00:15 .
CUBEBUG 2 23 Nov 10:01:11 10:05:07 36° 98° (E) 10:09:06 437.445
Oscar 11 23 Nov 10:05:31 10:09:53 76° 102° (ESE) 10:14:13 145.826/435.025
CINEMA 3 23 Nov 10:05:56 10:10:07 71° 102° (ESE) 10:14:26 145.822/145.860
UWE-3 23 Nov 10:07:59 10:11:56 37° 99° (E) 10:15:56 435.000/436.395/437.385
POLYITAN 1 23 Nov 10:15:22 10:19:27 47° 74° (ENE) 10:23:33 437.675
SEEDS 23 Nov 10:16:54 10:20:30 27° 289° (WNW) 10:24:07 437.485
QB50P2 23 Nov 10:18:37 10:22:45 51° 74° (ENE) 10:26:54 145.880/145.840
TIGRISAT 23 Nov 10:18:39 10:22:56 75° 76° (ENE) 10:27:11 435.000
DX 1 23 Nov 10:24:16 10:28:37 74° 284° (WNW) 10:32:55 434.975-435.025
DUCHIFAT 1 23 Nov 10:26:38 10:30:51 64° 75° (ENE) 10:35:04 145.980
ESTCUBE 1 23 Nov 10:30:00 10:31:51 12° 92° (E) 10:33:42 437.505/2401.250
UNISAT 6 23 Nov 10:30:32 10:34:50 77° 258° (WSW) 10:39:06 437.425
SHINDAISAT 23 Nov 10:34:17 10:35:49 34° 117° (ESE) 10:37:23 437.305
VELOX 1 23 Nov 10:40:27 10:44:43 46° 100° (E) 10:48:56 145.980
AAUSAT CUBESAT 2 23 Nov 10:40:29 10:43:34 20° 291° (WNW) 10:46:40 437.432
CANX-2 23 Nov 10:42:12 10:43:54 12° 294° (WNW) 10:45:37 2200.000
DOVE 4 23 Nov 10:45:13 10:48:30 23° 289° (WNW) 10:51:51 437.250
NANOSAT C BR1 23 Nov 10:45:29 10:49:45 75° 258° (WSW) 10:54:01 145.865
ZACube-1 23 Nov 10:49:52 10:54:05 78° 283° (WNW) 10:58:23 437.345
COMPASS 1 23 Nov 10:54:39 10:56:33 13° 294° (WNW) 10:58:27 437.405
QB50P1 23 Nov 10:55:01 10:59:13 56° 259° (W) 11:03:26 145.935-145.965
HUMSAT D 23 Nov 10:56:20 11:00:29 73° 102° (ESE) 11:04:41 437.325/437.525
ANTELSAT 23 Nov 10:59:23 11:03:18 34° 262° (W) 11:07:12 437.575/2403.000
DELFI C3 23 Nov 11:00:53 11:04:21 26° 289° (WNW) 11:07:48 145.870
AISAT 23 Nov 11:04:38 11:09:05 87° 283° (WNW) 11:13:29 437.250
50 SAT 23 Nov 11:05:46 11:09:51 79° 102° (ESE) 11:13:55 437.505
HO-68 23 Nov 11:08:36 11:13:36 21° 300° (WNW) 11:18:35 435.675
POPSAT HIP 1 23 Nov 11:20:00 11:23:42 29° 263° (W) 11:27:25 437.405
BUGSAT 1 23 Nov 11:22:12 11:26:02 32° 262° (W) 11:29:53 437.445
GONETS M04 23 Nov 11:24:45 11:27:17 11° 299° (WNW) 11:29:49
FUNcube-1 23 Nov 11:26:18 11:29:56 29° 288° (WNW) 11:33:38 145.935
CUBEBUG 1 23 Nov 11:29:08 11:33:27 58° 101° (E) 11:37:43 437.445
UKube-1 23 Nov 11:29:32 11:31:54 15° 294° (WNW) 11:34:16 .
TISAT 1 23 Nov 11:31:06 11:33:05 13° 93° (E) 11:35:04 437.305
SPROUT 23 Nov 11:31:48 11:33:17 12° 92° (E) 11:34:45 437.525
CUBEBUG 2 23 Nov 11:38:57 11:41:32 16° 292° (WNW) 11:44:09 437.445
UWE-3 23 Nov 11:45:40 11:48:10 16° 292° (WNW) 11:50:42 435.000/436.395/437.385
POLYITAN 1 23 Nov 11:53:56 11:55:38 12° 267° (W) 11:57:19 437.675
QB50P2 23 Nov 11:57:47 11:58:56 11° 268° (W) 12:00:05 145.880/145.840
ESTCUBE 1 23 Nov 12:04:35 12:09:00 52° 286° (WNW) 12:13:22 437.505/2401.250
VELOX 1 23 Nov 12:18:35 12:20:52 14° 294° (WNW) 12:23:09 145.980
SWISSCUBE 23 Nov 12:42:25 12:44:48 14° 92° (E) 12:47:09 437.505
Oscar 19 23 Nov 12:48:37 12:53:31 48° 72° (ENE) 12:58:26 437.125/150
TISAT 1 23 Nov 13:05:08 13:09:06 41° 287° (WNW) 13:13:03 437.305
SPROUT 23 Nov 13:05:29 13:09:37 48° 286° (WNW) 13:13:43 437.525
CUBEBUG 1 23 Nov 13:08:03 13:09:17 11° 296° (WNW) 13:10:30 437.445
SO-50 23 Nov 13:11:19 13:15:49 36° 54° (NE) 13:20:19 436.795
BEESAT 23 Nov 13:12:43 13:16:48 27° 97° (E) 13:20:51 436.000
AUBIESAT-1 23 Nov 13:21:19 13:26:03 46° 103° (ESE) 13:30:39 437.475
M-CUBED/EXP-1 PRIME 23 Nov 13:24:20 13:29:12 54° 104° (ESE) 13:33:55 437.505
ITAMSAT 1 23 Nov 13:34:53 13:39:57 53° 73° (ENE) 13:45:01 435.822/435.867
YUBILEINY 23 Nov 13:44:36 13:52:54 46° 77° (ENE) 14:01:06 435.215
Gurwin Techsat 1B 23 Nov 13:50:04 13:55:00 41° 71° (ENE) 13:59:57 435.225
ITUPSAT 1 23 Nov 14:06:00 14:10:49 79° 284° (WNW) 14:15:36 437.325
CUSAT 1 23 Nov 14:07:02 14:09:27 22° 281° (W) 14:11:38 437.405
SWISSCUBE 23 Nov 14:18:16 14:22:56 52° 287° (WNW) 14:27:33 437.505
DANDE 23 Nov 14:20:09 14:22:29 19° 281° (W) 14:24:35 436.750
VERMONT LUNAR 23 Nov 14:26:13 14:28:39 17° 143° (SE) 14:31:05 437.305
KKS-1 23 Nov 14:26:37 14:30:38 33° 98° (E) 14:34:38 437.445
Oscar 19 23 Nov 14:29:54 14:33:04 17° 267° (W) 14:36:16 437.125/150
AO-7 23 Nov 14:33:37 14:40:27 30° 60° (ENE) 14:47:19 29.400- 29.500
HORYU 2 23 Nov 14:37:16 14:41:32 50° 74° (ENE) 14:45:50 437.375
BEESAT 23 Nov 14:50:33 14:54:32 27° 291° (WNW) 14:58:29 436.000
SO-50 23 Nov 14:52:16 14:56:11 24° 249° (WSW) 15:00:05 436.795
AUBIESAT-1 23 Nov 14:57:11 15:00:38 20° 298° (WNW) 15:04:03 437.475
M-CUBED/EXP-1 PRIME 23 Nov 15:00:38 15:03:44 17° 299° (WNW) 15:06:49 437.505
ITAMSAT 1 23 Nov 15:16:36 15:19:42 16° 267° (W) 15:22:48 435.822/435.867
STARS 23 Nov 15:28:14 15:32:36 69° 285° (WNW) 15:36:57 437.465
Gurwin Techsat 1B 23 Nov 15:31:06 15:35:04 21° 266° (W) 15:39:03 435.225
MaSat-1 23 Nov 15:32:41 15:35:44 43° 111° (ESE) 15:38:31 437.345
PHONESAT 2.4 23 Nov 15:40:32 15:44:05 44° 151° (SSE) 15:47:39 2401.200-2431.200
YUBILEINY 23 Nov 15:41:52 15:49:20 34° 275° (W) 15:56:47 435.215
JAS-2 23 Nov 15:48:08 15:54:18 29° 64° (ENE) 16:00:42 435.910
RS-15 23 Nov 15:49:21 15:59:30 44° 108° (ESE) 16:09:30 29.354- 29.394
VERMONT LUNAR 23 Nov 16:03:10 16:06:48 87° 158° (SSE) 16:10:27 437.305
KKS-1 23 Nov 16:03:54 16:07:02 19° 292° (WNW) 16:10:09 437.445
O/OREOS (USA 219) 23 Nov 16:14:47 16:18:51 33° 65° (ENE) 16:22:54 437.305
HORYU 2 23 Nov 16:16:44 16:18:28 12° 268° (W) 16:20:12 437.375
AO-7 23 Nov 16:24:39 16:32:44 57° 257° (WSW) 16:40:53 29.400- 29.500
CUTE-I 23 Nov 16:36:53 16:39:27 14° 63° (ENE) 16:42:02 437.470
MOZHAYETS 4 23 Nov 16:47:27 16:51:33 30° 97° (E) 16:55:37
PHONESAT 2.4 23 Nov 17:19:15 17:22:54 51° 346° (NNW) 17:26:32 2401.200-2431.200
PRISM 23 Nov 17:25:48 17:27:23 12° 93° (E) 17:28:57 437.425
JAS-2 23 Nov 17:31:29 17:38:44 57° 261° (W) 17:46:27 435.910
Cubesat XI-IV 23 Nov 17:31:35 17:36:42 47° 72° (ENE) 17:41:50 437.490
VERMONT LUNAR 23 Nov 17:42:06 17:45:31 38° 354° (N) 17:48:57 437.305
O/OREOS (USA 219) 23 Nov 17:54:52 17:57:58 19° 259° (W) 18:01:03 437.305
RS-15 23 Nov 18:01:09 18:11:37 49° 309° (NW) 18:22:08 29.354- 29.394
CUTE-I 23 Nov 18:13:32 18:18:53 70° 258° (WSW) 18:24:14 437.470
CUBESAT XI-V 23 Nov 18:21:29 18:24:58 21° 94° (E) 18:28:25 437.345
MOZHAYETS 4 23 Nov 18:24:56 18:28:35 23° 291° (WNW) 18:32:13
PHONESAT 2.4 23 Nov 18:58:36 19:02:06 37° 3° (N) 19:05:35 2401.200-2431.200
PRISM 23 Nov 18:59:05 19:03:09 47° 287° (WNW) 19:07:12 437.425
Cubesat XI-IV 23 Nov 19:13:17 19:16:58 19° 266° (W) 19:20:41 437.490
BRITE-PL 23 Nov 19:20:03 19:21:33 11° 66° (ENE) 19:23:02 437.365/2234.400
VERMONT LUNAR 23 Nov 19:20:56 19:24:26 44° 11° (N) 19:27:56 437.305
STRAND 1 23 Nov 19:23:58 19:29:06 90° 284° (WNW) 19:34:11 437.568
SEEDS 23 Nov 19:33:43 19:34:40 11° 65° (ENE) 19:35:37 437.485
GONETS M04 23 Nov 19:34:11 19:42:46 52° 78° (ENE) 19:51:13
HO-68 23 Nov 19:44:54 19:51:25 39° 66° (ENE) 19:57:56 435.675
AIST 1 23 Nov 19:48:24 19:52:29 40° 92° (E) 19:56:36
AAUSAT CUBESAT 2 23 Nov 19:54:36 19:56:48 14° 67° (ENE) 19:59:01 437.432
CANX-2 23 Nov 19:55:12 19:58:39 25° 71° (ENE) 20:02:08 2200.000
CUBESAT XI-V 23 Nov 19:58:17 20:02:26 33° 289° (WNW) 20:06:33 437.345
COMPASS 1 23 Nov 20:06:51 20:10:06 23° 70° (ENE) 20:13:22 437.405
DOVE 4 23 Nov 20:11:00 20:14:21 20° 70° (ENE) 20:17:36 437.250
RS-15 23 Nov 20:21:40 20:27:41 16° 339° (NNW) 20:33:46 29.354- 29.394
PCSat 23 Nov 20:21:50 20:27:14 87° 115° (ESE) 20:32:41 145.827
CUTE 1.7 & AOD 2 23 Nov 20:29:26 20:33:34 60° 75° (ENE) 20:37:44 437.475
PHONESAT 2.4 23 Nov 20:37:28 20:41:12 77° 20° (NNE) 20:44:54 2401.200-2431.200
GOMX 1 23 Nov 20:39:21 20:44:11 56° 75° (ENE) 20:48:43 467.674
BEESAT 3 23 Nov 20:42:47 20:46:48 65° 117° (ESE) 20:50:55 437.485
UKube-1 23 Nov 20:44:47 20:48:24 26° 70° (ENE) 20:52:03 .
FUNcube-1 23 Nov 20:46:04 20:47:22 11° 66° (ENE) 20:48:40 145.935
BRITE-PL 23 Nov 20:54:21 20:59:34 73° 258° (WSW) 21:04:24 437.365/2234.400
BEESAT 2 23 Nov 20:55:59 21:00:04 84° 118° (ESE) 21:04:15 435.950
Oscar 11 23 Nov 20:57:39 21:01:39 39° 73° (ENE) 21:05:40 145.826/435.025
CUBEBUG 2 23 Nov 20:57:41 21:01:01 22° 70° (ENE) 21:04:19 437.445
VERMONT LUNAR 23 Nov 20:59:27 21:03:01 57° 207° (SSW) 21:06:34 437.305
UWE-3 23 Nov 21:03:24 21:06:43 22° 70° (ENE) 21:09:58 435.000/436.395/437.385
CINEMA 3 23 Nov 21:05:09 21:09:26 45° 74° (ENE) 21:13:34 145.822/145.860
SEEDS 23 Nov 21:05:53 21:09:59 55° 260° (W) 21:14:06 437.485
DX 1 23 Nov 21:16:53 21:21:13 65° 75° (ENE) 21:25:35 434.975-435.025
AIST 2 23 Nov 21:18:49 21:22:59 70° 117° (ESE) 21:27:15 435.215
AIST 1 23 Nov 21:27:54 21:30:19 14° 287° (WNW) 21:32:44
AAUSAT CUBESAT 2 23 Nov 21:28:14 21:32:07 40° 262° (W) 21:36:03 437.432
CANX-2 23 Nov 21:31:15 21:34:32 22° 265° (W) 21:37:49 2200.000
GONETS M04 23 Nov 21:31:46 21:39:04 30° 276° (W) 21:46:20
HO-68 23 Nov 21:32:33 21:39:01 36° 262° (W) 21:45:33 435.675
VELOX 1 23 Nov 21:35:50 21:39:44 30° 71° (ENE) 21:43:39 145.980
COMPASS 1 23 Nov 21:42:19 21:45:42 24° 264° (W) 21:49:07 437.405
ZACube-1 23 Nov 21:43:18 21:47:28 56° 75° (ENE) 21:51:35 437.345
HUMSAT D 23 Nov 21:46:12 21:49:58 34° 73° (ENE) 21:53:42 437.325/437.525
DELFI C3 23 Nov 21:46:12 21:50:12 60° 259° (W) 21:54:15 145.870
DOVE 4 23 Nov 21:47:36 21:51:55 34° 262° (W) 21:56:02 437.250
50 SAT 23 Nov 21:52:16 21:55:54 33° 72° (ENE) 21:59:31 437.505
AISAT 23 Nov 21:59:54 22:04:18 58° 74° (ENE) 22:08:43 437.250
PCSat 23 Nov 22:08:47 22:11:21 13° 313° (NW) 22:13:56 145.827
QB50P2 23 Nov 22:10:17 22:11:04 10° 92° (E) 22:11:51 145.880/145.840
TIGRISAT 23 Nov 22:14:12 22:17:24 19° 95° (E) 22:20:39 435.000
PHONESAT 2.4 23 Nov 22:16:47 22:19:45 23° 215° (SW) 22:22:42 2401.200-2431.200
DUCHIFAT 1 23 Nov 22:16:58 22:18:53 13° 93° (E) 22:20:47 145.980
FUNcube-1 23 Nov 22:19:07 22:23:16 52° 260° (W) 22:27:22 145.935
GOMX 1 23 Nov 22:20:25 22:22:29 13° 267° (W) 22:24:32 467.674
UKube-1 23 Nov 22:21:03 22:24:30 23° 264° (W) 22:27:58 .
CUBEBUG 1 23 Nov 22:22:47 22:26:48 34° 72° (ENE) 22:30:49 437.445
BEESAT 3 23 Nov 22:23:49 22:25:28 12° 314° (NW) 22:27:08 437.485
UNISAT 6 23 Nov 22:25:55 22:29:43 27° 97° (E) 22:33:34 437.425
CUBEBUG 2 23 Nov 22:34:00 22:37:36 25° 263° (W) 22:41:09 437.445
NANOSAT C BR1 23 Nov 22:34:46 22:38:02 22° 96° (E) 22:41:17 145.865
Oscar 11 23 Nov 22:35:34 22:37:57 15° 267° (W) 22:40:21 145.826/435.025
UWE-3 23 Nov 22:39:34 22:43:08 25° 263° (W) 22:46:39 435.000/436.395/437.385
VERMONT LUNAR 23 Nov 22:40:41 22:40:59 10° 220° (SW) 22:41:17 437.305
RS-15 23 Nov 22:41:26 22:47:01 15° 18° (NNE) 22:52:40 29.354- 29.394
QB50P1 23 Nov 22:43:59 22:47:38 28° 97° (E) 22:51:16 145.935-145.965
CINEMA 3 23 Nov 22:44:43 22:46:48 13° 267° (W) 22:48:51 145.822/145.860
ANTELSAT 23 Nov 22:53:54 22:58:17 58° 101° (E) 23:02:45 437.575/2403.000
AIST 2 23 Nov 23:00:26 23:02:06 12° 314° (NW) 23:03:46 435.215
ESTCUBE 1 23 Nov 23:01:09 23:05:41 82° 257° (WSW) 23:10:16 437.505/2401.250
CUSAT 1 23 Nov 23:06:44 23:06:59 10° 75° (ENE) 23:07:14 437.405
BUGSAT 1 23 Nov 23:07:42 23:11:36 43° 99° (E) 23:15:27 437.445
POPSAT HIP 1 23 Nov 23:08:03 23:12:12 55° 100° (E) 23:16:19 437.405
VELOX 1 23 Nov 23:12:55 23:16:19 21° 265° (W) 23:19:43 145.980
DANDE 23 Nov 23:20:06 23:21:42 12° 77° (ENE) 23:23:27 436.750
HUMSAT D 23 Nov 23:23:23 23:25:52 15° 266° (W) 23:28:20 437.325/437.525
50 SAT 23 Nov 23:28:53 23:31:17 15° 266° (W) 23:33:41 437.505
ISS 23 Nov 23:33:53 23:36:49 31° 132° (SE) 23:39:46 145.825
POLYITAN 1 23 Nov 23:40:04 23:44:13 57° 285° (WNW) 23:48:21 437.675
AISAT 23 Nov 23:40:16 23:41:15 11° 268° (W) 23:42:15 437.250
QB50P2 23 Nov 23:43:09 23:47:16 52° 286° (WNW) 23:51:22 145.880/145.840
SWISSCUBE 23 Nov 23:47:25 23:49:20 12° 64° (ENE) 23:51:14 437.505
TIGRISAT 23 Nov 23:50:15 23:54:10 32° 288° (WNW) 23:58:09 435.000
DUCHIFAT 1 23 Nov 23:50:57 23:54:56 42° 287° (WNW) 23:58:55 145.980
TISAT 1 23 Nov 23:54:29 23:58:46 85° 257° (WSW) 00:03:04 437.305
SPROUT 23 Nov 23:56:31 00:00:51 86° 77° (ENE) 00:05:12 437.525
CUBEBUG 1 24 Nov 00:00:09 00:03:13 18° 266° (W) 00:06:18 437.445
UNISAT 6 24 Nov 00:02:51 00:06:22 24° 290° (WNW) 00:09:56 437.425
AUBIESAT-1 24 Nov 00:08:36 00:12:09 33° 66° (ENE) 00:16:00 437.475
NANOSAT C BR1 24 Nov 00:10:22 00:13:51 26° 290° (WNW) 00:17:20 145.865
M-CUBED/EXP-1 PRIME 24 Nov 00:11:56 00:15:36 40° 67° (ENE) 00:19:36 437.505
BEESAT 24 Nov 00:16:56 00:20:41 24° 68° (ENE) 00:24:28 436.000
QB50P1 24 Nov 00:20:14 00:23:20 20° 291° (WNW) 00:26:26 145.935-145.965
ANTELSAT 24 Nov 00:33:01 00:34:36 12° 295° (WNW) 00:36:11 437.575/2403.000
BUGSAT 1 24 Nov 00:44:55 00:46:41 13° 294° (WNW) 00:48:27 437.445
CUSAT 1 24 Nov 00:45:21 00:50:00 75° 262° (W) 00:56:17 437.405
POPSAT HIP 1 24 Nov 00:46:33 00:47:35 11° 295° (WNW) 00:48:37 437.405
RS-15 24 Nov 00:53:07 01:03:38 43° 49° (NE) 01:14:30 29.354- 29.394
DANDE 24 Nov 01:00:34 01:05:01 62° 263° (W) 01:11:03 436.750
Oscar 19 24 Nov 01:03:51 01:07:49 22° 95° (E) 01:11:46 437.125/150
ITUPSAT 1 24 Nov 01:09:51 01:14:39 85° 76° (ENE) 01:19:30 437.325
ISS 24 Nov 01:10:46 01:13:29 23° 327° (NNW) 01:16:12 145.825
MaSat-1 24 Nov 01:14:39 01:16:39 24° 64° (ENE) 01:18:42 437.345
SWISSCUBE 24 Nov 01:21:51 01:26:36 64° 259° (WSW) 01:31:23 437.505
KKS-1 24 Nov 01:22:45 01:26:11 22° 69° (ENE) 01:29:37 437.445
JUGNU 24 Nov 01:28:00 01:31:29 16° 174° (S) 01:34:59 437.505
SRMSAT 24 Nov 01:35:37 01:37:38 12° 167° (SSE) 01:39:39 437.500
AUBIESAT-1 24 Nov 01:44:50 01:47:19 16° 263° (W) 01:49:55 437.475
M-CUBED/EXP-1 PRIME 24 Nov 01:49:03 01:50:57 13° 265° (W) 01:52:54 437.505
ITAMSAT 1 24 Nov 01:51:29 01:55:37 24° 96° (E) 01:59:42 435.822/435.867
BEESAT 24 Nov 01:54:06 01:58:20 31° 263° (W) 02:02:36 436.000
Gurwin Techsat 1B 24 Nov 02:09:59 02:13:54 21° 94° (E) 02:17:48 435.225
STARS 24 Nov 02:22:25 02:26:48 71° 76° (ENE) 02:31:11 437.465
HORYU 2 24 Nov 02:33:48 02:35:46 13° 93° (E) 02:37:43 437.375
YUBILEINY 24 Nov 02:41:13 02:49:47 59° 91° (E) 02:58:20 435.215
Oscar 19 24 Nov 02:42:29 02:47:12 38° 289° (WNW) 02:51:56 437.125/150
KKS-1 24 Nov 02:58:47 03:02:39 29° 263° (W) 03:06:31 437.445
RS-15 24 Nov 03:05:24 03:16:15 55° 249° (WSW) 03:27:37 29.354- 29.394
JUGNU 24 Nov 03:16:11 03:19:46 16° 185° (S) 03:23:22 437.505
SRMSAT 24 Nov 03:22:20 03:26:03 17° 177° (S) 03:29:45 437.500
SO-50 24 Nov 03:24:21 03:27:41 21° 110° (ESE) 03:31:06 436.795
ITAMSAT 1 24 Nov 03:30:27 03:35:07 35° 290° (WNW) 03:39:45 435.822/435.867
MOZHAYETS 4 24 Nov 03:47:22 03:50:45 21° 68° (ENE) 03:54:09
Gurwin Techsat 1B 24 Nov 03:49:01 03:53:59 42° 289° (WNW) 03:58:56 435.225
HORYU 2 24 Nov 04:08:20 04:12:40 50° 287° (WNW) 04:17:00 437.375
AO-7 24 Nov 04:29:17 04:37:34 61° 104° (ESE) 04:45:47 29.400- 29.500
YUBILEINY 24 Nov 04:39:54 04:47:01 27° 289° (WNW) 04:54:09 435.215
JAS-2 24 Nov 04:46:23 04:52:10 27° 92° (E) 04:57:22 435.910
STRAND 1 24 Nov 05:02:45 05:03:32 10° 61° (ENE) 05:04:18 437.568
SO-50 24 Nov 05:03:50 05:07:58 35° 306° (NW) 05:12:13 436.795
BEESAT 3 24 Nov 05:06:22 05:09:19 18° 50° (NE) 05:12:14 437.485
JUGNU 24 Nov 05:06:52 05:08:01 11° 194° (SSW) 05:09:10 437.505
SRMSAT 24 Nov 05:11:06 05:14:29 15° 187° (S) 05:17:52 437.500
PCSat 24 Nov 05:13:00 05:18:01 37° 57° (ENE) 05:23:00 145.827
BEESAT 2 24 Nov 05:19:41 05:23:01 22° 52° (NE) 05:26:19 435.950
CUBESAT XI-V 24 Nov 05:23:05 05:25:52 16° 66° (ENE) 05:28:40 437.345
MOZHAYETS 4 24 Nov 05:23:38 05:27:44 33° 263° (W) 05:31:53
AIST 2 24 Nov 05:44:22 05:47:38 21° 51° (NE) 05:50:52 435.215
PRISM 24 Nov 05:46:44 05:50:55 85° 77° (ENE) 05:55:09 437.425
Cubesat XI-IV 24 Nov 05:52:35 05:56:49 24° 95° (E) 06:01:01 437.490
ISS 24 Nov 06:05:13 06:07:14 15° 28° (NNE) 06:09:15 145.825
AO-7 24 Nov 06:23:01 06:29:45 28° 301° (WNW) 06:36:30 29.400- 29.500
O/OREOS (USA 219) 24 Nov 06:23:37 06:28:05 71° 108° (ESE) 06:32:33 437.305
